When you browse on this site, cookies collect data to enhance your experience and personalize the content and advertising you see.
Visit our Privacy Policy to learn more. By continuing to use the site, you agree to this use of cookies and data.
EN

Hourly Weather Varpalota

Today, 8 August, Saturday

Time Temperature Precipitation Wind Pressure Humidity
00:00 +24°C° 0 mm 2 mps 748 mmHg 66%
01:00 +23°C° 0 mm 2 mps 748 mmHg 66%
02:00 +23°C° 0 mm 2 mps 748 mmHg 67%
03:00 +23°C° 0 mm 2 mps 748 mmHg 68%
04:00 +21°C° 0 mm 2 mps 748 mmHg 69%
05:00 +23°C° 0 mm 2 mps 748 mmHg 68%
06:00 +24°C° 0 mm 2 mps 748 mmHg 67%
07:00 +26°C° 0 mm 2 mps 749 mmHg 65%
08:00 +27°C° 0 mm 2 mps 749 mmHg 60%
09:00 +29°C° 0 mm 3 mps 749 mmHg 55%
10:00 +31°C° 0 mm 3 mps 749 mmHg 50%
11:00 +31°C° 0 mm 3 mps 749 mmHg 47%
12:00 +33°C° 0 mm 3 mps 748 mmHg 43%
13:00 +34°C° 0 mm 3 mps 749 mmHg 41%
14:00 +34°C° 0 mm 2 mps 748 mmHg 40%
15:00 +34°C° 0 mm 2 mps 748 mmHg 39%
16:00 +34°C° 0 mm 2 mps 747 mmHg 39%
17:00 +31°C° 0 mm 2 mps 747 mmHg 43%
18:00 +29°C° 0 mm 1 mps 747 mmHg 47%
19:00 +28°C° 0 mm 1 mps 747 mmHg 52%
20:00 +27°C° 0 mm 1 mps 747 mmHg 53%
21:00 +26°C° 0 mm 1 mps 747 mmHg 54%
22:00 +25°C° 0 mm 1 mps 747 mmHg 56%
23:00 +25°C° 0 mm 1 mps 747 mmHg 56%

Tomorrow, 9 August, Sunday

Time Temperature Precipitation Wind Pressure Humidity
00:00 +24°C° 0 mm 1 mps 747 mmHg 57%
01:00 +24°C° 0 mm 1 mps 747 mmHg 57%
02:00 +23°C° 0 mm 1 mps 747 mmHg 59%
03:00 +23°C° 0 mm 2 mps 747 mmHg 60%
04:00 +21°C° 0 mm 2 mps 746 mmHg 62%
05:00 +23°C° 0 mm 2 mps 747 mmHg 61%
06:00 +24°C° 0 mm 1 mps 747 mmHg 61%
07:00 +25°C° 0 mm 1 mps 747 mmHg 60%
08:00 +27°C° 0 mm 1 mps 747 mmHg 57%
09:00 +28°C° 0 mm 1 mps 747 mmHg 53%
10:00 +30°C° 0 mm 1 mps 747 mmHg 50%
11:00 +31°C° 0 mm 1 mps 747 mmHg 46%
12:00 +32°C° 0 mm 1 mps 746 mmHg 42%
13:00 +32°C° 0 mm 1 mps 746 mmHg 38%
14:00 +33°C° 0 mm 1 mps 746 mmHg 38%
15:00 +33°C° 0 mm 1 mps 745 mmHg 37%
16:00 +33°C° 0 mm 1 mps 745 mmHg 36%
17:00 +31°C° 0 mm 1 mps 745 mmHg 42%
18:00 +29°C° 0 mm 1 mps 745 mmHg 48%
19:00 +27°C° 0 mm 1 mps 745 mmHg 54%
20:00 +26°C° 0 mm 1 mps 745 mmHg 57%
21:00 +25°C° 0 mm 1 mps 745 mmHg 60%
22:00 +24°C° 0 mm 1 mps 745 mmHg 64%
23:00 +24°C° 0 mm 1 mps 745 mmHg 65%

Day after tomorrow, 10 August, Monday

Time Temperature Precipitation Wind Pressure Humidity
00:00 +24°C° 0 mm 1 mps 745 mmHg 66%
01:00 +24°C° 0 mm 1 mps 745 mmHg 67%
02:00 +23°C° 0 mm 1 mps 745 mmHg 69%
03:00 +23°C° 0 mm 1 mps 745 mmHg 72%
04:00 +23°C° 0 mm 1 mps 745 mmHg 74%
05:00 +24°C° 0.1 mm 1 mps 745 mmHg 72%
06:00 +25°C° 0.1 mm 1 mps 745 mmHg 71%
07:00 +24°C° 0.1 mm 0 mps 746 mmHg 70%
08:00 +27°C° 0 mm 1 mps 746 mmHg 64%
09:00 +29°C° 0 mm 1 mps 746 mmHg 58%
10:00 +30°C° 0 mm 1 mps 746 mmHg 53%
11:00 +31°C° 0.1 mm 1 mps 746 mmHg 50%
12:00 +32°C° 0.1 mm 1 mps 745 mmHg 47%
13:00 +33°C° 0.1 mm 1 mps 745 mmHg 44%
14:00 +33°C° 0 mm 1 mps 745 mmHg 44%
15:00 +32°C° 0 mm 1 mps 745 mmHg 45%
16:00 +32°C° 0 mm 1 mps 744 mmHg 46%
17:00 +30°C° 0.2 mm 1 mps 744 mmHg 51%
18:00 +29°C° 0.2 mm 1 mps 744 mmHg 57%
19:00 +27°C° 0.2 mm 1 mps 744 mmHg 63%
20:00 +26°C° 0.4 mm 1 mps 745 mmHg 65%
21:00 +26°C° 0.4 mm 1 mps 745 mmHg 67%
22:00 +23°C° 0.4 mm 0 mps 745 mmHg 68%
23:00 +25°C° 0.1 mm 1 mps 745 mmHg 70%

11 August, Tuesday

Time Temperature Precipitation Wind Pressure Humidity
00:00 +24°C° 0.1 mm 1 mps 745 mmHg 71%
01:00 +24°C° 0.1 mm 1 mps 745 mmHg 73%
02:00 +23°C° 0.3 mm 1 mps 745 mmHg 75%
03:00 +23°C° 0.3 mm 1 mps 745 mmHg 78%
04:00 +22°C° 0.3 mm 1 mps 745 mmHg 80%
05:00 +23°C° 0.2 mm 1 mps 745 mmHg 78%
06:00 +24°C° 0.2 mm 1 mps 745 mmHg 77%
07:00 +25°C° 0.2 mm 1 mps 745 mmHg 75%
08:00 +26°C° 0.1 mm 1 mps 746 mmHg 70%
09:00 +28°C° 0.1 mm 1 mps 746 mmHg 64%
10:00 +29°C° 0.1 mm 1 mps 746 mmHg 58%
11:00 +30°C° 0.3 mm 1 mps 746 mmHg 54%
12:00 +31°C° 0.3 mm 1 mps 746 mmHg 50%
13:00 +33°C° 0.3 mm 1 mps 746 mmHg 45%
14:00 +32°C° 0 mm 1 mps 745 mmHg 46%
15:00 +32°C° 0 mm 1 mps 745 mmHg 47%
16:00 +32°C° 0 mm 1 mps 745 mmHg 48%
17:00 +30°C° 0.2 mm 1 mps 745 mmHg 53%
18:00 +29°C° 0.2 mm 1 mps 745 mmHg 58%
19:00 +27°C° 0.2 mm 1 mps 745 mmHg 63%
20:00 +26°C° 0.6 mm 1 mps 745 mmHg 69%
21:00 +25°C° 0.6 mm 1 mps 745 mmHg 74%
22:00 +23°C° 0.6 mm 1 mps 745 mmHg 80%
23:00 +23°C° 0 mm 1 mps 745 mmHg 80%

12 August, Wednesday

Time Temperature Precipitation Wind Pressure Humidity
00:00 +23°C° 0 mm 1 mps 745 mmHg 81%
01:00 +22°C° 0 mm 1 mps 745 mmHg 81%
02:00 +22°C° 0 mm 1 mps 745 mmHg 82%
03:00 +22°C° 0 mm 1 mps 745 mmHg 83%
04:00 +21°C° 0 mm 1 mps 745 mmHg 84%
05:00 +22°C° 0 mm 1 mps 746 mmHg 81%
06:00 +23°C° 0 mm 1 mps 746 mmHg 77%
07:00 +24°C° 0 mm 1 mps 746 mmHg 74%
08:00 +25°C° 0 mm 1 mps 746 mmHg 68%
09:00 +27°C° 0 mm 2 mps 746 mmHg 61%
10:00 +28°C° 0 mm 2 mps 747 mmHg 54%
11:00 +29°C° 0 mm 2 mps 746 mmHg 51%
12:00 +30°C° 0 mm 2 mps 746 mmHg 47%
13:00 +31°C° 0 mm 2 mps 746 mmHg 44%
14:00 +31°C° 0 mm 2 mps 746 mmHg 42%
15:00 +31°C° 0 mm 2 mps 746 mmHg 41%
16:00 +31°C° 0 mm 2 mps 746 mmHg 40%
17:00 +30°C° 0 mm 2 mps 745 mmHg 44%
18:00 +28°C° 0 mm 2 mps 745 mmHg 49%
19:00 +26°C° 0 mm 2 mps 745 mmHg 54%
20:00 +25°C° 0 mm 2 mps 746 mmHg 56%
21:00 +25°C° 0 mm 2 mps 746 mmHg 58%
22:00 +24°C° 0 mm 2 mps 746 mmHg 60%
23:00 +23°C° 0 mm 2 mps 746 mmHg 63%

13 August, Thursday

Time Temperature Precipitation Wind Pressure Humidity
00:00 +23°C° 0 mm 2 mps 746 mmHg 66%
01:00 +21°C° 0 mm 3 mps 746 mmHg 69%
02:00 +21°C° 0 mm 2 mps 746 mmHg 69%
03:00 +20°C° 0 mm 2 mps 746 mmHg 70%
04:00 +20°C° 0 mm 2 mps 746 mmHg 71%
05:00 +20°C° 0 mm 2 mps 746 mmHg 68%
06:00 +21°C° 0 mm 2 mps 746 mmHg 65%
07:00 +22°C° 0 mm 3 mps 746 mmHg 62%
08:00 +24°C° 0 mm 3 mps 746 mmHg 58%
09:00 +26°C° 0 mm 3 mps 746 mmHg 53%
10:00 +27°C° 0 mm 3 mps 746 mmHg 49%
11:00 +28°C° 0 mm 3 mps 746 mmHg 47%
12:00 +29°C° 0 mm 2 mps 746 mmHg 44%
13:00 +30°C° 0 mm 2 mps 745 mmHg 42%
14:00 +30°C° 0 mm 2 mps 745 mmHg 42%
15:00 +30°C° 0 mm 3 mps 745 mmHg 43%
16:00 +30°C° 0 mm 3 mps 745 mmHg 43%
17:00 +29°C° 0 mm 2 mps 745 mmHg 48%
18:00 +27°C° 0 mm 2 mps 745 mmHg 53%
19:00 +25°C° 0 mm 2 mps 745 mmHg 58%
20:00 +25°C° 0 mm 2 mps 745 mmHg 59%
21:00 +24°C° 0 mm 2 mps 745 mmHg 60%
22:00 +23°C° 0 mm 2 mps 745 mmHg 61%
23:00 +23°C° 0 mm 1 mps 745 mmHg 61%
Show more